#timestamp,LO_Frequency,Hit,StdDev 
1588979595.3,286047012.9,P
1588979615.2,286047013.9,P
1588979635.0,286047010.9,P
1588979635.9,286047010.9,Y
1588979655.7,286046999.9,P
1588979675.6,286047000.1,N
1588979695.4,286047004.1,N
1588979715.3,286047005.8,N
1588979735.1,286047005.6,N
1588979736.0,286047005.6,N
1588979755.8,286047003.6,N
1588979775.7,286047003.4,N
1588979795.5,286047005.8,N
1588979815.3,286047005.5,N
1588979835.2,286047003.3,N
1588979855.0,286047005.6,N
1588979855.9,286047005.6,N
1588979875.8,286047005.5,N
1588979895.6,286047005.2,N
1588979915.4,286047004.9,N
1588979935.3,286047007.2,N
1588979955.1,286047004.9,N
1588979975.9,286047004.5,N
1588979995.7,286047005.0,N
1588980015.5,286047004.5,N
1588980035.4,286047006.6,N
1588980055.2,286047009.0,Y
1588980075.1,286047003.3,P
1588980076.0,286047003.3,P
1588980095.8,286047003.6,P
1588980115.6,286047003.1,Y
1588980135.5,286047001.0,P
1588980155.3,286047000.8,N
1588980175.1,286046999.8,N
1588980195.9,286047002.2,N
1588980215.7,286047004.0,N
1588980235.6,286047001.4,N
1588980255.4,286046999.7,N
1588980275.2,286047002.0,N
1588980295.1,286047001.7,N
1588980296.0,286047001.7,N
1588980315.8,286047004.1,Y
1588980335.7,286047001.3,P
1588980355.5,286047001.4,P
1588980375.3,286047004.3,P
1588980395.2,286047003.7,N
1588980415.0,286047001.3,N
1588980415.9,286047001.3,N
1588980435.7,286047003.3,N
1588980455.6,286047003.2,N
1588980475.4,286047003.8,Y
1588980495.3,286046999.9,P
1588980515.1,286047001.8,N
1588980535.8,286047003.5,P
1588980555.7,286047004.0,Y
1588980575.5,286047001.9,P
1588980595.4,286047002.4,P
1588980615.2,286047000.1,N
1588980635.0,286047001.1,N
1588980635.9,286047001.1,N
1588980655.8,286046999.1,N
1588980675.6,286046998.9,N
1588980695.4,286046998.6,N
1588980715.3,286046998.2,N
1588980735.1,286047001.0,N
1588980755.9,286047000.3,N
1588980775.7,286047002.8,N
1588980795.5,286047002.7,N
1588980815.4,286046999.8,N
1588980835.2,286047000.3,N
1588980855.0,286047000.0,N
1588980855.9,286047000.0,N
1588980875.8,286047000.1,N
1588980895.6,286046999.8,N
1588980915.5,286047001.5,N
1588980935.3,286047003.9,Y
1588980955.1,286047000.7,P
1588980975.9,286046999.3,P
1588980995.7,286046997.3,P
1588981015.6,286046994.9,Y
1588981035.4,286046999.6,P
1588981055.2,286046995.4,P
1588981075.1,286046993.6,P
1588981076.0,286046993.6,N
1588981095.8,286046995.1,N
1588981115.6,286046997.8,N
1588981135.5,286046995.2,N
1588981155.3,286046994.2,N
1588981175.2,286046994.8,N
1588981195.9,286046994.4,N
1588981215.7,286046991.9,Y
1588981235.6,286046996.7,P
1588981255.4,286046999.0,N
1588981275.2,286047000.4,N
1588981295.1,286047004.3,N
1588981296.0,286047004.3,N
1588981315.8,286047003.4,N
1588981335.7,286047007.4,N
1588981355.5,286047007.4,N
1588981375.3,286047009.2,N
1588981395.2,286047006.6,N
1588981415.0,286047004.6,N
1588981415.9,286047004.6,N
1588981435.8,286047005.3,N
1588981455.6,286047005.0,N
1588981475.4,286047005.2,N
1588981495.3,286047004.7,N
1588981515.1,286047007.2,N
1588981535.8,286047009.2,N
1588981555.7,286047008.2,N
1588981575.5,286047010.5,N
1588981595.4,286047010.0,N
1588981615.2,286047009.6,N
1588981635.0,286047010.0,N
1588981635.9,286047010.0,N
1588981655.8,286047009.5,N
1588981675.6,286047011.8,N
1588981695.5,286047013.7,Y
1588981715.3,286047009.2,P
1588981735.1,286047006.6,P
1588981755.9,286047008.8,P
1588981775.7,286047008.5,Y
1588981795.5,286047000.0,P
1588981815.4,286047002.5,N
1588981835.2,286047000.1,N
1588981855.1,286047002.2,N
1588981856.0,286047002.2,N
1588981875.8,286047001.9,N
1588981895.6,286047001.7,N
1588981915.5,286047003.6,N
1588981935.3,286047003.4,N
1588981955.2,286047005.4,N
1588981975.9,286047003.1,N
1588981995.7,286047005.9,N
1588982015.6,286047004.3,N
1588982035.4,286047001.3,N
1588982055.3,286047002.2,N
1588982075.1,286047001.7,N
1588982076.0,286047001.7,N
1588982095.8,286047005.2,N
1588982115.7,286047006.4,Y
1588982135.5,286047007.5,P
1588982155.3,286047004.6,N
1588982175.2,286047003.9,N
1588982195.0,286047001.5,N
1588982195.9,286047001.5,N
1588982215.8,286047003.2,N
1588982235.6,286047006.1,Y
1588982255.4,286047006.2,P
1588982275.3,286047006.2,P
1588982295